IBE1VH LEXJ-LEBL

Flight info

Callsign IBE1VH
Flight time 0h 58m
Altitude 28000
Route BLV M601 CEGAM/N0416F300 M601 GRAUS
Aircraft A320/M-SDE3FGHIRWY/LB1

Departure

Time 2026-05-05 20:05
Airport Seve Ballesteros-Santander Airport (LEXJ)

Arrival

Time 2026-05-05 21:03
Airport Josep Tarradellas Barcelona-El Prat Airport (LEBL)
Time Latitude Longitude Altitude Speed Heading
2026-05-05 19:49 43.42383 -3.82295 21 ft 0 kts 233°
2026-05-05 20:00 43.42383 -3.82296 19 ft 1 kts 233°
2026-05-05 20:00 43.42388 -3.82307 20 ft 1 kts 317°
2026-05-05 20:01 43.42399 -3.82306 19 ft 1 kts 15°
2026-05-05 20:01 43.42419 -3.82266 19 ft 9 kts 78°
2026-05-05 20:01 43.42392 -3.82159 19 ft 13 kts 111°
2026-05-05 20:01 43.42437 -3.82090 21 ft 10 kts 19°
2026-05-05 20:02 43.42500 -3.82060 19 ft 9 kts 19°
2026-05-05 20:02 43.42533 -3.81981 19 ft 14 kts 108°
2026-05-05 20:02 43.42492 -3.81833 19 ft 19 kts 110°
2026-05-05 20:02 43.42441 -3.81637 21 ft 24 kts 110°
2026-05-05 20:03 43.42380 -3.81413 19 ft 25 kts 110°
2026-05-05 20:03 43.42445 -3.81317 21 ft 18 kts 18°
2026-05-05 20:03 43.42493 -3.81196 22 ft 18 kts 111°
2026-05-05 20:03 43.42443 -3.81023 23 ft 21 kts 110°
2026-05-05 20:04 43.42391 -3.80823 20 ft 24 kts 109°
2026-05-05 20:04 43.42318 -3.80671 19 ft 13 kts 98°
2026-05-05 20:04 43.42353 -3.80680 18 ft 9 kts 292°
2026-05-05 20:04 43.42390 -3.80817 20 ft 30 kts 290°
2026-05-05 20:05 43.42543 -3.81438 22 ft 103 kts 287°
2026-05-05 20:05 43.42761 -3.82267 19 ft 137 kts 291°
2026-05-05 20:05 43.43155 -3.83665 318 ft 167 kts 290°
2026-05-05 20:05 43.43604 -3.85198 937 ft 178 kts 293°
2026-05-05 20:06 43.44073 -3.86807 1579 ft 184 kts 291°
2026-05-05 20:06 43.44539 -3.88505 2028 ft 193 kts 290°
2026-05-05 20:06 43.45024 -3.90277 2561 ft 205 kts 292°
2026-05-05 20:06 43.45902 -3.91846 3253 ft 212 kts 323°
2026-05-05 20:07 43.47114 -3.92481 4005 ft 219 kts 352°
2026-05-05 20:07 43.48618 -3.92047 4870 ft 230 kts 27°
2026-05-05 20:07 43.49691 -3.90383 5667 ft 243 kts 66°
2026-05-05 20:07 43.49811 -3.88062 6474 ft 251 kts 105°
2026-05-05 20:08 43.49030 -3.85911 7240 ft 253 kts 122°
2026-05-05 20:08 43.48170 -3.83798 7993 ft 255 kts 108°
2026-05-05 20:08 43.47956 -3.81388 8635 ft 261 kts 79°
2026-05-05 20:08 43.48448 -3.78891 8997 ft 282 kts 69°
2026-05-05 20:09 43.49084 -3.76282 9671 ft 291 kts 68°
2026-05-05 20:09 43.49721 -3.73594 10335 ft 304 kts 75°
2026-05-05 20:09 43.49835 -3.70570 10584 ft 331 kts 91°
2026-05-05 20:09 43.49693 -3.67295 10838 ft 353 kts 92°
2026-05-05 20:10 43.49520 -3.63875 11414 ft 362 kts 92°
2026-05-05 20:10 43.49334 -3.60392 12141 ft 366 kts 93°
2026-05-05 20:10 43.49147 -3.56873 12885 ft 370 kts 93°
2026-05-05 20:10 43.48964 -3.53321 13630 ft 374 kts 92°
2026-05-05 20:11 43.48782 -3.49723 14307 ft 378 kts 92°
2026-05-05 20:11 43.48602 -3.46145 14957 ft 381 kts 92°
2026-05-05 20:11 43.48418 -3.42489 15601 ft 385 kts 93°
2026-05-05 20:11 43.48182 -3.38800 16217 ft 389 kts 98°
2026-05-05 20:12 43.47539 -3.35163 16820 ft 394 kts 108°
2026-05-05 20:12 43.46418 -3.31710 17442 ft 398 kts 119°
2026-05-05 20:12 43.45031 -3.28398 18049 ft 401 kts 120°
2026-05-05 20:12 43.43630 -3.25060 18599 ft 405 kts 120°
2026-05-05 20:13 43.42221 -3.21694 19117 ft 408 kts 120°
2026-05-05 20:13 43.40804 -3.18302 19646 ft 410 kts 120°
2026-05-05 20:13 43.39380 -3.14891 20174 ft 413 kts 119°
2026-05-05 20:13 43.37945 -3.11457 20694 ft 416 kts 120°
2026-05-05 20:14 43.36496 -3.08001 21196 ft 418 kts 120°
2026-05-05 20:14 43.35037 -3.04522 21682 ft 421 kts 120°
2026-05-05 20:14 43.33567 -3.01023 22150 ft 425 kts 120°
2026-05-05 20:14 43.32079 -2.97489 22629 ft 428 kts 120°
2026-05-05 20:15 43.30583 -2.93938 23105 ft 431 kts 120°
2026-05-05 20:15 43.29051 -2.90389 23575 ft 434 kts 121°
2026-05-05 20:15 43.27483 -2.86895 23955 ft 436 kts 122°
2026-05-05 20:15 43.25840 -2.83314 24340 ft 439 kts 123°
2026-05-05 20:16 43.24220 -2.79813 24679 ft 442 kts 123°
2026-05-05 20:16 43.22567 -2.76239 25041 ft 445 kts 123°
2026-05-05 20:16 43.20908 -2.72637 25400 ft 448 kts 123°
2026-05-05 20:16 43.19246 -2.69013 25711 ft 451 kts 123°
2026-05-05 20:17 43.17576 -2.65354 25980 ft 456 kts 123°
2026-05-05 20:17 43.15886 -2.61651 26303 ft 459 kts 123°
2026-05-05 20:17 43.14185 -2.57929 26644 ft 462 kts 123°
2026-05-05 20:17 43.12470 -2.54186 26976 ft 465 kts 124°
2026-05-05 20:18 43.10744 -2.50431 27312 ft 468 kts 124°
2026-05-05 20:18 43.09002 -2.46652 27633 ft 470 kts 124°
2026-05-05 20:18 43.07251 -2.42853 27939 ft 473 kts 124°
2026-05-05 20:19 43.03741 -2.35243 28043 ft 472 kts 124°
2026-05-05 20:19 43.00242 -2.27666 28048 ft 471 kts 124°
2026-05-05 20:20 42.96720 -2.20074 28040 ft 474 kts 124°
2026-05-05 20:20 42.93188 -2.12462 28034 ft 475 kts 124°
2026-05-05 20:21 42.89648 -2.04857 28029 ft 474 kts 125°
2026-05-05 20:21 42.86096 -1.97283 28025 ft 474 kts 125°
2026-05-05 20:22 42.82544 -1.89714 28017 ft 473 kts 125°
2026-05-05 20:22 42.79007 -1.82168 28003 ft 472 kts 125°
2026-05-05 20:23 42.75478 -1.74651 27998 ft 471 kts 125°
2026-05-05 20:23 42.73724 -1.70890 27993 ft 471 kts 123°
2026-05-05 20:23 42.72227 -1.66915 27989 ft 473 kts 117°
2026-05-05 20:23 42.70818 -1.62878 27988 ft 472 kts 117°
2026-05-05 20:24 42.69404 -1.58851 27986 ft 472 kts 117°
2026-05-05 20:24 42.67981 -1.54812 27987 ft 472 kts 117°
2026-05-05 20:24 42.66560 -1.50786 27988 ft 472 kts 118°
2026-05-05 20:24 42.65140 -1.46764 27999 ft 471 kts 118°
2026-05-05 20:25 42.63721 -1.42756 28004 ft 471 kts 118°
2026-05-05 20:25 42.60879 -1.34734 28008 ft 471 kts 118°
2026-05-05 20:25 42.59461 -1.30730 27981 ft 471 kts 118°
2026-05-05 20:26 42.58039 -1.26725 27983 ft 471 kts 118°
2026-05-05 20:26 42.56634 -1.22773 27982 ft 471 kts 118°
2026-05-05 20:26 42.55209 -1.18768 27983 ft 472 kts 118°
2026-05-05 20:26 42.53778 -1.14756 27981 ft 472 kts 118°
2026-05-05 20:27 42.52346 -1.10752 27980 ft 472 kts 119°
2026-05-05 20:27 42.50910 -1.06753 27978 ft 472 kts 119°
2026-05-05 20:27 42.49474 -1.02757 27980 ft 472 kts 119°
2026-05-05 20:27 42.48039 -0.98756 27982 ft 472 kts 119°
2026-05-05 20:28 42.46609 -0.94758 27986 ft 471 kts 118°
2026-05-05 20:28 42.45177 -0.90757 27978 ft 471 kts 119°
2026-05-05 20:28 42.43745 -0.86764 27974 ft 471 kts 119°
2026-05-05 20:28 42.42308 -0.82771 27975 ft 471 kts 119°
2026-05-05 20:29 42.40867 -0.78789 27973 ft 471 kts 119°
2026-05-05 20:29 42.39423 -0.74808 27942 ft 471 kts 120°
2026-05-05 20:29 42.37976 -0.70827 27948 ft 472 kts 120°
2026-05-05 20:29 42.36532 -0.66846 27951 ft 472 kts 120°
2026-05-05 20:30 42.35084 -0.62854 27949 ft 473 kts 120°
2026-05-05 20:30 42.33637 -0.58866 27949 ft 473 kts 120°
2026-05-05 20:30 42.32184 -0.54874 27954 ft 474 kts 120°
2026-05-05 20:30 42.30725 -0.50872 27958 ft 474 kts 120°
2026-05-05 20:31 42.29269 -0.46883 27961 ft 474 kts 120°
2026-05-05 20:31 42.27807 -0.42893 27952 ft 474 kts 120°
2026-05-05 20:31 42.26346 -0.38910 27952 ft 474 kts 120°
2026-05-05 20:31 42.24882 -0.34923 27950 ft 474 kts 120°
2026-05-05 20:32 42.23418 -0.30941 27953 ft 474 kts 120°
2026-05-05 20:32 42.22445 -0.28302 27944 ft 474 kts 120°
2026-05-05 20:32 42.20978 -0.24319 27946 ft 474 kts 120°
2026-05-05 20:32 42.19511 -0.20332 27915 ft 474 kts 120°
2026-05-05 20:33 42.18039 -0.16334 27945 ft 477 kts 120°
2026-05-05 20:33 42.16558 -0.12322 27951 ft 478 kts 120°
2026-05-05 20:33 42.15076 -0.08312 27951 ft 479 kts 120°
2026-05-05 20:33 42.13585 -0.04290 27952 ft 479 kts 120°
2026-05-05 20:34 42.12095 -0.00281 27941 ft 479 kts 121°
2026-05-05 20:34 42.10603 0.03726 27931 ft 479 kts 121°
2026-05-05 20:34 42.09110 0.07728 27932 ft 478 kts 121°
2026-05-05 20:34 42.07614 0.11730 27934 ft 478 kts 121°
2026-05-05 20:35 42.06140 0.15672 27933 ft 478 kts 121°
2026-05-05 20:35 42.04646 0.19668 27935 ft 478 kts 121°
2026-05-05 20:35 42.03148 0.23670 27940 ft 478 kts 121°
2026-05-05 20:35 42.01654 0.27660 27939 ft 478 kts 121°
2026-05-05 20:36 42.00153 0.31653 27941 ft 478 kts 121°
2026-05-05 20:36 41.98651 0.35640 27913 ft 478 kts 121°
2026-05-05 20:36 41.97368 0.39739 27864 ft 471 kts 113°
2026-05-05 20:36 41.96320 0.43857 27549 ft 460 kts 113°
2026-05-05 20:37 41.95291 0.47894 27087 ft 453 kts 113°
2026-05-05 20:37 41.94276 0.51870 26604 ft 447 kts 113°
2026-05-05 20:37 41.93269 0.55796 26113 ft 442 kts 113°
2026-05-05 20:37 41.92267 0.59673 25643 ft 437 kts 113°
2026-05-05 20:38 41.91274 0.63502 25169 ft 431 kts 113°
2026-05-05 20:38 41.90293 0.67277 24705 ft 426 kts 113°
2026-05-05 20:38 41.89321 0.71010 24240 ft 421 kts 113°
2026-05-05 20:38 41.88362 0.74696 23777 ft 416 kts 112°
2026-05-05 20:39 41.87416 0.78340 23312 ft 411 kts 113°
2026-05-05 20:39 41.86484 0.81941 22792 ft 406 kts 113°
2026-05-05 20:39 41.85560 0.85499 22241 ft 402 kts 113°
2026-05-05 20:39 41.84641 0.89026 21715 ft 399 kts 113°
2026-05-05 20:40 41.83724 0.92523 21196 ft 396 kts 112°
2026-05-05 20:40 41.82813 0.95999 20698 ft 394 kts 112°
2026-05-05 20:40 41.81904 0.99456 20210 ft 391 kts 112°
2026-05-05 20:40 41.81003 1.02883 19728 ft 389 kts 112°
2026-05-05 20:41 41.80106 1.06292 19274 ft 387 kts 112°
2026-05-05 20:41 41.79211 1.09682 18806 ft 385 kts 111°
2026-05-05 20:41 41.78319 1.13057 18352 ft 383 kts 111°
2026-05-05 20:41 41.77434 1.16400 17882 ft 379 kts 112°
2026-05-05 20:42 41.76559 1.19708 17446 ft 375 kts 112°
2026-05-05 20:42 41.75693 1.22996 16959 ft 373 kts 111°
2026-05-05 20:42 41.74843 1.26221 16510 ft 371 kts 111°
2026-05-05 20:42 41.73975 1.29504 16047 ft 368 kts 111°
2026-05-05 20:43 41.73130 1.32684 15609 ft 366 kts 111°
2026-05-05 20:43 41.72279 1.35883 15176 ft 363 kts 111°
2026-05-05 20:43 41.71435 1.39054 14745 ft 361 kts 111°
2026-05-05 20:43 41.70595 1.42209 14326 ft 359 kts 111°
2026-05-05 20:44 41.69758 1.45342 13911 ft 356 kts 111°
2026-05-05 20:44 41.68925 1.48455 13461 ft 354 kts 111°
2026-05-05 20:44 41.68097 1.51550 13004 ft 352 kts 111°
2026-05-05 20:44 41.67272 1.54631 12524 ft 350 kts 111°
2026-05-05 20:45 41.65638 1.60735 11643 ft 346 kts 111°
2026-05-05 20:45 41.64831 1.63750 11223 ft 344 kts 111°
2026-05-05 20:45 41.64027 1.66746 10772 ft 341 kts 111°
2026-05-05 20:46 41.63227 1.69717 10349 ft 339 kts 111°
2026-05-05 20:46 41.62429 1.72675 9942 ft 336 kts 111°
2026-05-05 20:46 41.61648 1.75562 9810 ft 325 kts 111°
2026-05-05 20:46 41.60894 1.78347 9676 ft 313 kts 111°
2026-05-05 20:47 41.60166 1.81032 9504 ft 303 kts 111°
2026-05-05 20:47 41.59450 1.83665 9169 ft 299 kts 111°
2026-05-05 20:47 41.58740 1.86267 8764 ft 298 kts 111°
2026-05-05 20:47 41.58030 1.88859 8417 ft 296 kts 111°
2026-05-05 20:48 41.57326 1.91437 8047 ft 294 kts 111°
2026-05-05 20:48 41.56627 1.93998 7655 ft 293 kts 111°
2026-05-05 20:48 41.55932 1.96550 7297 ft 291 kts 111°
2026-05-05 20:48 41.55243 1.99080 7126 ft 290 kts 111°
2026-05-05 20:49 41.54552 2.01613 6939 ft 290 kts 111°
2026-05-05 20:49 41.53861 2.04142 6736 ft 290 kts 111°
2026-05-05 20:49 41.53169 2.06664 6534 ft 289 kts 111°
2026-05-05 20:49 41.52483 2.09177 6351 ft 288 kts 109°
2026-05-05 20:50 41.52070 2.11789 6146 ft 288 kts 95°
2026-05-05 20:50 41.52074 2.14459 5940 ft 288 kts 88°
2026-05-05 20:50 41.52150 2.17129 5734 ft 287 kts 88°
2026-05-05 20:50 41.52221 2.19778 5530 ft 284 kts 88°
2026-05-05 20:51 41.52287 2.22358 5322 ft 271 kts 88°
2026-05-05 20:51 41.52348 2.24819 5118 ft 259 kts 88°
2026-05-05 20:51 41.52406 2.27147 4917 ft 243 kts 88°
2026-05-05 20:51 41.52460 2.29341 4716 ft 231 kts 89°
2026-05-05 20:52 41.52513 2.31485 4518 ft 231 kts 88°
2026-05-05 20:52 41.52565 2.33623 4310 ft 230 kts 88°
2026-05-05 20:52 41.52617 2.35748 4156 ft 229 kts 87°
2026-05-05 20:52 41.52667 2.37836 4040 ft 228 kts 88°
2026-05-05 20:53 41.52716 2.39934 3999 ft 225 kts 88°
2026-05-05 20:53 41.52767 2.42061 3998 ft 226 kts 87°
2026-05-05 20:53 41.52817 2.44143 3994 ft 226 kts 88°
2026-05-05 20:53 41.52863 2.46244 3989 ft 226 kts 90°
2026-05-05 20:54 41.52634 2.48321 3986 ft 226 kts 108°
2026-05-05 20:54 41.51981 2.50226 3980 ft 225 kts 125°
2026-05-05 20:54 41.50962 2.51797 3974 ft 222 kts 144°
2026-05-05 20:54 41.49641 2.52830 3971 ft 218 kts 164°
2026-05-05 20:55 41.48169 2.53222 3964 ft 214 kts 183°
2026-05-05 20:55 41.46707 2.52967 3962 ft 210 kts 201°
2026-05-05 20:55 41.45408 2.52120 3961 ft 206 kts 220°
2026-05-05 20:55 41.44397 2.50802 3964 ft 202 kts 237°
2026-05-05 20:56 41.43728 2.49163 3967 ft 201 kts 248°
2026-05-05 20:56 41.43158 2.47460 3969 ft 201 kts 248°
2026-05-05 20:56 41.42590 2.45765 3897 ft 199 kts 248°
2026-05-05 20:56 41.42022 2.44080 3777 ft 201 kts 248°
2026-05-05 20:57 41.41449 2.42384 3651 ft 201 kts 248°
2026-05-05 20:57 41.40877 2.40691 3533 ft 200 kts 248°
2026-05-05 20:57 41.40305 2.39000 3407 ft 201 kts 248°
2026-05-05 20:57 41.39732 2.37306 3284 ft 200 kts 248°
2026-05-05 20:58 41.39167 2.35641 3155 ft 194 kts 248°
2026-05-05 20:58 41.38618 2.34019 3068 ft 191 kts 248°
2026-05-05 20:58 41.38073 2.32412 2986 ft 189 kts 248°
2026-05-05 20:58 41.37531 2.30813 3003 ft 190 kts 248°
2026-05-05 20:59 41.36989 2.29216 2968 ft 189 kts 248°
2026-05-05 20:59 41.36450 2.27630 2813 ft 183 kts 249°
2026-05-05 20:59 41.35947 2.26153 2597 ft 167 kts 249°
2026-05-05 20:59 41.35493 2.24822 2395 ft 148 kts 250°
2026-05-05 21:00 41.35085 2.23623 2186 ft 138 kts 250°
2026-05-05 21:00 41.34698 2.22482 2011 ft 134 kts 250°
2026-05-05 21:00 41.34318 2.21364 1836 ft 132 kts 251°
2026-05-05 21:00 41.33940 2.20251 1662 ft 132 kts 250°
2026-05-05 21:01 41.33566 2.19153 1486 ft 133 kts 249°
2026-05-05 21:01 41.33183 2.18026 1307 ft 134 kts 249°
2026-05-05 21:01 41.32799 2.16901 1121 ft 132 kts 250°
2026-05-05 21:01 41.32421 2.15794 945 ft 131 kts 248°
2026-05-05 21:02 41.32042 2.14685 765 ft 131 kts 249°
2026-05-05 21:02 41.31658 2.13582 565 ft 134 kts 249°
2026-05-05 21:02 41.31272 2.12458 412 ft 133 kts 251°
2026-05-05 21:02 41.30895 2.11329 235 ft 135 kts 248°
2026-05-05 21:03 41.30506 2.10190 56 ft 136 kts 249°
2026-05-05 21:03 41.30147 2.09121 16 ft 108 kts 246°
2026-05-05 21:03 41.29907 2.08432 20 ft 56 kts 245°
2026-05-05 21:03 41.29773 2.08042 17 ft 32 kts 235°
2026-05-05 21:04 41.29645 2.07877 17 ft 25 kts 217°
2026-05-05 21:04 41.29527 2.07855 18 ft 11 kts 130°
2026-05-05 21:04 41.29559 2.07962 18 ft 15 kts 65°
2026-05-05 21:04 41.29604 2.08115 18 ft 15 kts 58°
2026-05-05 21:05 41.29609 2.08233 19 ft 13 kts 148°
2026-05-05 21:05 41.29529 2.08282 18 ft 12 kts 155°
2026-05-05 21:05 41.29455 2.08326 18 ft 11 kts 155°
2026-05-05 21:05 41.29386 2.08344 18 ft 11 kts 200°
2026-05-05 21:06 41.29337 2.08226 18 ft 18 kts 244°
2026-05-05 21:06 41.29277 2.08056 18 ft 22 kts 246°
2026-05-05 21:06 41.29215 2.07866 20 ft 19 kts 245°
2026-05-05 21:06 41.29152 2.07768 18 ft 10 kts 156°
2026-05-05 21:07 41.29109 2.07792 18 ft 2 kts 156°
2026-05-05 21:07 41.29101 2.07797 18 ft 1 kts 156°
2026-05-05 21:07 41.29098 2.07799 18 ft 0 kts 156°